TimeCST,TemperatureF,Dew PointF,Humidity,Sea Level PressureIn,VisibilityMPH,Wind Direction,Wind SpeedMPH,Gust SpeedMPH,PrecipitationIn,Events,Conditions,WindDirDegrees,DateUTC
12:52 AM,18.0,15.1,88,30.33,9.0,SW,4.6,-,N/A,,Clear,230,2012-12-30 06:52:00
1:52 AM,18.0,15.1,88,30.35,8.0,SW,4.6,-,N/A,,Clear,220,2012-12-30 07:52:00
2:52 AM,18.0,15.1,88,30.37,8.0,SSW,4.6,-,N/A,,Clear,210,2012-12-30 08:52:00
3:52 AM,19.0,15.1,85,30.39,9.0,SSW,4.6,-,N/A,,Clear,210,2012-12-30 09:52:00
4:52 AM,19.0,15.1,85,30.38,10.0,SW,4.6,-,N/A,,Clear,220,2012-12-30 10:52:00
5:52 AM,19.9,16.0,85,30.38,10.0,SW,4.6,-,N/A,,Clear,220,2012-12-30 11:52:00
6:52 AM,19.9,16.0,85,30.40,10.0,SW,8.1,-,N/A,,Clear,230,2012-12-30 12:52:00
7:52 AM,21.0,17.1,85,30.40,9.0,SW,6.9,-,N/A,,Clear,220,2012-12-30 13:52:00
8:52 AM,25.0,19.0,78,30.40,10.0,SW,3.5,-,N/A,,Clear,230,2012-12-30 14:52:00
9:52 AM,28.9,21.0,72,30.41,10.0,SSW,5.8,-,N/A,,Clear,210,2012-12-30 15:52:00
10:52 AM,33.1,25.0,72,30.40,10.0,SSW,6.9,-,N/A,,Clear,210,2012-12-30 16:52:00
11:52 AM,35.1,25.0,67,30.38,10.0,SW,8.1,-,N/A,,Clear,230,2012-12-30 17:52:00
12:52 PM,39.0,27.0,62,30.35,10.0,SW,9.2,-,N/A,,Clear,220,2012-12-30 18:52:00
1:52 PM,41.0,26.1,55,30.31,10.0,SSW,6.9,-,N/A,,Clear,210,2012-12-30 19:52:00
2:52 PM,39.9,26.1,58,30.31,10.0,SSW,11.5,-,N/A,,Clear,210,2012-12-30 20:52:00
3:52 PM,39.0,28.0,65,30.32,10.0,South,12.7,-,N/A,,Clear,170,2012-12-30 21:52:00
4:52 PM,34.0,27.0,75,30.29,10.0,South,11.5,-,N/A,,Clear,170,2012-12-30 22:52:00
5:52 PM,32.0,25.0,75,30.31,10.0,South,13.8,-,N/A,,Clear,180,2012-12-30 23:52:00
6:52 PM,32.0,25.0,75,30.27,10.0,South,16.1,-,N/A,,Clear,170,2012-12-31 00:52:00
7:52 PM,30.9,26.1,82,30.25,10.0,South,15.0,-,N/A,,Clear,180,2012-12-31 01:52:00
8:52 PM,32.0,26.1,79,30.25,10.0,South,13.8,-,N/A,,Clear,190,2012-12-31 02:52:00
9:52 PM,33.1,27.0,78,30.22,10.0,South,13.8,-,N/A,,Clear,190,2012-12-31 03:52:00
10:52 PM,33.1,27.0,78,30.22,10.0,SSW,13.8,-,N/A,,Clear,200,2012-12-31 04:52:00
11:52 PM,32.0,27.0,82,30.18,10.0,South,12.7,-,N/A,,Clear,190,2012-12-31 05:52:00